Location: Bruch
(44.2051°N, 0.4120°E)
Time: 12:29:32
(UTC+00:00)

SKYMED 2 - Pass Details

Date: 29 November 2020
Orbit: 621 x 623 km, 97.9° (Epoch: 26 January)

Event Time Altitude Azimuth Distance (km) Brightness Sun altitude
Rises 05:46:06 0° 188° (S) 2,888 7.1 -15.0°
Reaches altitude 10° 05:48:26 10° 197° (SSW) 1,988 6.2 -14.6°
Maximum altitude 05:52:23 34° 263° (W) 1,025 4.2 -13.9°
Enters shadow 05:55:40 14° 324° (NW) 1,752 5.4 -13.3°
